CW0927 Weather Reports


Display with metric or nautical units.
time (UTC)temp
F
wind
direction
speed
MPH
gust
MPH
rain 1hr
in
rain 24hr
in
rain mn
in
humidity
%
barometer
mb
20260906002335 83 103 0.0 2.0 0.00 0.02 0.02 80 1014.2
20260906001841 83 59 0.0 1.0 0.00 0.02 0.02 81 1014.1
20260906001344 83 59 0.0 0.0 0.00 0.02 0.02 80 1014.0
20260906000848 83 59 0.0 0.0 0.00 0.02 0.02 79 1014.1
20260906000333 83 59 0.0 0.0 0.00 0.02 0.02 79 1014.1
20260905235833 83 59 0.0 1.0 0.00 0.02 0.02 79 1014.0
20260905235332 83 59 0.0 1.0 0.00 0.02 0.02 80 1014.0
20260905234836 83 59 0.0 2.0 0.00 0.02 0.02 79 1014.1
20260905234408 84 53 1.0 2.0 0.00 0.02 0.02 79 1014.1
20260905233852 84 39 0.0 0.0 0.00 0.02 0.02 79 1014.1
20260905233336 84 39 0.0 0.0 0.00 0.02 0.02 79 1014.1
20260905232837 84 39 0.0 1.0 0.00 0.02 0.02 79 1014.2
20260905232340 84 39 0.0 1.0 0.00 0.02 0.02 79 1014.1
20260905231824 85 46 0.0 1.0 0.00 0.02 0.02 78 1014.2
20260905231329 85 46 0.0 1.0 0.00 0.02 0.02 78 1014.1
20260905230834 85 46 0.0 1.0 0.00 0.02 0.02 79 1014.1
20260905230340 85 46 0.0 2.0 0.00 0.02 0.02 78 1014.2
20260905225841 85 55 0.0 2.0 0.00 0.03 0.02 78 1014.3
20260905225325 85 53 1.0 2.0 0.00 0.03 0.02 78 1014.3
20260905224828 85 48 0.0 2.0 0.00 0.03 0.02 78 1014.3
20260905224329 85 48 0.0 0.0 0.00 0.03 0.02 77 1014.2
20260905223831 85 48 0.0 0.0 0.00 0.03 0.02 78 1014.1
20260905223331 85 48 0.0 1.0 0.00 0.03 0.02 78 1014.0
20260905222829 86 48 0.0 1.0 0.00 0.03 0.02 77 1014.0
20260905222329 86 48 0.0 1.0 0.00 0.03 0.02 78 1014.0
20260905221829 86 48 0.0 1.0 0.00 0.03 0.02 77 1014.0
20260905221329 86 55 0.0 1.0 0.00 0.03 0.02 76 1014.1
20260905220829 87 55 0.0 2.0 0.00 0.03 0.02 76 1013.9
20260905220340 87 55 0.0 2.0 0.00 0.03 0.02 76 1013.8
20260905215838 87 62 0.0 2.0 0.00 0.03 0.02 77 1013.8
20260905215341 87 11 0.0 1.0 0.00 0.03 0.02 76 1013.8
20260905214843 86 11 0.0 2.0 0.00 0.03 0.02 76 1014.0
20260905214341 86 11 1.0 2.0 0.00 0.03 0.02 76 1014.2
20260905213846 86 39 1.0 2.0 0.00 0.03 0.02 76 1014.1
20260905213329 86 33 0.0 2.0 0.00 0.03 0.02 75 1014.1
20260905212830 86 88 0.0 2.0 0.00 0.03 0.02 76 1013.9
20260905212401 87 92 0.0 3.0 0.00 0.03 0.02 76 1014.0
20260905211842 87 86 1.0 3.0 0.00 0.03 0.02 75 1014.2
20260905211346 87 348 0.0 2.0 0.00 0.03 0.02 76 1014.3
20260905210849 87 348 0.0 2.0 0.00 0.03 0.02 75 1014.3
20260905210354 88 90 0.0 2.0 0.00 0.03 0.02 74 1014.5
20260905205835 88 19 1.0 2.0 0.00 0.55 0.02 74 1014.4
20260905205340 89 75 1.0 3.0 0.00 0.55 0.02 73 1014.3
20260905204824 89 26 1.0 3.0 0.00 0.55 0.02 72 1014.3
20260905204327 90 13 1.0 6.0 0.00 0.55 0.02 71 1014.3
20260905203827 91 334 1.0 6.0 0.00 0.55 0.02 70 1014.4
20260905203332 92 46 1.0 7.0 0.00 0.55 0.02 71 1014.5
20260905202833 91 5 1.0 7.0 0.00 0.55 0.02 68 1014.5
20260905202341 92 29 1.0 7.0 0.00 0.55 0.02 66 1014.5
20260905201843 93 288 1.0 7.0 0.00 0.55 0.02 63 1014.5
20260905201343 93 313 3.0 7.0 0.00 0.55 0.02 67 1014.4
20260905200843 93 292 1.0 4.0 0.00 0.55 0.02 68 1014.3
20260905200343 92 341 0.0 3.0 0.00 0.55 0.02 68 1014.4
20260905195843 93 74 1.0 4.0 0.00 0.55 0.02 67 1014.5
20260905195346 93 329 1.0 5.0 0.00 0.55 0.02 65 1014.4
20260905194849 93 9 1.0 3.0 0.00 0.55 0.02 67 1014.4
20260905194331 93 25 1.0 8.0 0.00 0.55 0.02 69 1014.5
20260905193830 93 32 1.0 6.0 0.00 0.55 0.02 67 1014.5
20260905193334 93 32 1.0 6.0 0.00 0.55 0.02 67 1014.7
20260905192905 92 26 2.0 6.0 0.00 0.55 0.02 67 1014.8
20260905192348 92 313 1.0 6.0 0.00 0.55 0.02 65 1014.6
20260905191830 91 333 2.0 11.0 0.00 0.55 0.02 63 1014.5
20260905191334 91 292 5.0 11.0 0.00 0.55 0.02 64 1014.5
20260905190837 90 319 2.0 11.0 0.00 0.55 0.02 67 1014.6
20260905190341 90 264 4.0 13.0 0.00 0.55 0.02 66 1014.5
20260905185843 90 24 5.0 13.0 0.00 0.55 0.02 63 1014.5
20260905185345 90 257 3.0 11.0 0.00 0.55 0.02 64 1014.7
20260905184850 90 298 5.0 14.0 0.00 0.55 0.02 65 1014.9
20260905184333 92 251 7.0 14.0 0.00 0.55 0.02 63 1014.8
20260905183832 94 248 7.0 12.0 0.00 0.55 0.02 64 1014.6
20260905183404 94 265 4.0 10.0 0.00 0.55 0.02 62 1014.5
20260905182847 94 273 4.0 10.0 0.00 0.55 0.02 63 1014.5
20260905182326 94 261 3.0 8.0 0.00 0.55 0.02 63 1014.6
20260905181826 94 265 2.0 8.0 0.00 0.55 0.02 65 1014.4
20260905181325 94 240 2.0 8.0 0.00 0.55 0.02 66 1014.5
20260905180824 93 186 1.0 10.0 0.00 0.55 0.02 66 1014.5
20260905180325 93 258 4.0 10.0 0.00 0.55 0.02 64 1014.4
20260905175821 93 184 1.0 11.0 0.00 0.55 0.02 67 1014.4
20260905175323 93 256 3.0 7.0 0.00 0.55 0.02 66 1014.6
20260905174823 93 251 2.0 9.0 0.00 0.55 0.02 64 1014.7
20260905174324 93 247 2.0 7.0 0.00 0.55 0.02 67 1014.8
20260905173822 93 287 2.0 6.0 0.00 0.55 0.02 67 1014.9
20260905173350 92 263 2.0 8.0 0.00 0.55 0.02 68 1015.1
20260905172827 92 243 2.0 8.0 0.00 0.55 0.02 67 1015.1
20260905172356 92 189 2.0 6.0 0.00 0.55 0.02 69 1015.2
20260905171837 92 242 1.0 5.0 0.00 0.55 0.02 71 1015.3
20260905171408 91 270 2.0 8.0 0.00 0.55 0.02 71 1015.4
20260905170848 91 261 3.0 8.0 0.00 0.55 0.02 71 1015.4
20260905170330 91 24 0.0 5.0 0.00 0.55 0.02 74 1015.5
20260905165830 91 268 2.0 6.0 0.00 0.55 0.02 72 1015.6
20260905165334 91 161 1.0 6.0 0.00 0.55 0.02 72 1015.6
20260905164902 90 256 2.0 4.0 0.00 0.55 0.02 73 1015.9
20260905164324 90 251 2.0 5.0 0.00 0.55 0.02 74 1016.0
20260905163854 90 306 1.0 4.0 0.00 0.55 0.02 75 1016.1
20260905163336 89 59 2.0 7.0 0.00 0.55 0.02 73 1016.1
20260905162835 89 248 3.0 7.0 0.00 0.55 0.02 74 1016.3
20260905162406 89 245 2.0 5.0 0.00 0.55 0.02 75 1016.4
20260905161849 89 281 2.0 4.0 0.00 0.55 0.02 74 1016.4
20260905161349 89 248 0.0 3.0 0.00 0.55 0.02 77 1016.4
20260905160849 88 273 1.0 5.0 0.00 0.55 0.02 78 1016.5
20260905160349 88 241 2.0 7.0 0.00 0.55 0.02 78 1016.6
20260905155848 87 252 1.0 5.0 0.00 0.55 0.02 79 1016.5
20260905155347 87 254 1.0 4.0 0.00 0.55 0.02 78 1016.5
20260905154846 87 263 2.0 4.0 0.00 0.55 0.02 78 1016.5
20260905154326 87 309 1.0 4.0 0.00 0.55 0.02 80 1016.5
20260905153825 87 261 1.0 3.0 0.00 0.55 0.02 81 1016.6
20260905153327 86 209 0.0 5.0 0.00 0.55 0.02 81 1016.6
20260905152825 86 258 2.0 8.0 0.00 0.55 0.02 81 1016.6
20260905152328 86 265 3.0 8.0 0.00 0.55 0.02 83 1016.8
20260905151828 86 289 1.0 6.0 0.00 0.55 0.02 84 1016.9
20260905151327 85 255 2.0 6.0 0.00 0.55 0.02 83 1017.0
20260905150829 85 280 1.0 4.0 0.00 0.55 0.02 85 1016.9
20260905150359 85 251 1.0 4.0 0.00 0.55 0.02 85 1016.9
20260905145840 85 242 2.0 4.0 0.00 0.55 0.02 85 1016.8
20260905145322 85 261 1.0 4.0 0.00 0.55 0.02 85 1016.8
20260905144848 85 242 1.0 4.0 0.00 0.55 0.02 86 1016.7
20260905144349 84 261 1.0 5.0 0.00 0.55 0.02 86 1016.7
20260905143830 84 246 2.0 5.0 0.00 0.55 0.02 86 1016.6
20260905143402 84 247 1.0 4.0 0.00 0.55 0.02 88 1016.6
20260905142839 84 256 1.0 6.0 0.00 0.55 0.02 89 1016.6
20260905142340 83 250 1.0 6.0 0.00 0.55 0.02 88 1016.6
20260905141842 83 252 3.0 6.0 0.00 0.55 0.02 89 1016.6
20260905141345 83 223 1.0 6.0 0.00 0.55 0.02 90 1016.5
20260905140826 82 238 1.0 6.0 0.00 0.55 0.02 91 1016.6
20260905140326 82 295 1.0 3.0 0.00 0.55 0.02 92 1016.6
20260905135847 82 250 1.0 4.0 0.00 0.55 0.02 93 1016.7
20260905135325 81 250 1.0 4.0 0.00 0.55 0.02 94 1016.6
20260905134825 81 265 1.0 7.0 0.00 0.55 0.02 95 1016.6
20260905134324 80 253 2.0 7.0 0.00 0.55 0.02 96 1016.5
20260905133824 80 259 1.0 4.0 0.00 0.55 0.02 97 1016.5
20260905133325 79 263 1.0 4.0 0.00 0.55 0.02 97 1016.6
20260905132850 79 219 1.0 3.0 0.00 0.55 0.02 97 1016.7
20260905132350 78 238 1.0 2.0 0.00 0.55 0.02 97 1016.6
20260905131829 78 71 0.0 2.0 0.00 0.55 0.02 97 1016.7
20260905131329 78 71 0.0 1.0 0.00 0.55 0.02 97 1016.6
20260905130830 77 71 0.0 1.0 0.00 0.55 0.02 97 1016.5
20260905130328 77 71 0.0 1.0 0.00 0.55 0.02 97 1016.5
20260905125858 77 71 0.0 0.0 0.00 0.55 0.02 97 1016.5
20260905125339 77 71 0.0 0.0 0.00 0.55 0.02 97 1016.5
20260905124842 77 71 0.0 1.0 0.00 0.55 0.02 97 1016.5
20260905124346 77 71 0.0 1.0 0.00 0.55 0.02 97 1016.5
20260905123849 76 71 0.0 0.0 0.00 0.55 0.02 97 1016.4
20260905123333 76 71 0.0 0.0 0.00 0.55 0.02 97 1016.5
20260905122840 76 71 0.0 0.0 0.00 0.55 0.02 97 1016.5
20260905122324 76 71 0.0 0.0 0.00 0.55 0.02 97 1016.6
20260905121828 76 71 0.0 0.0 0.00 0.55 0.02 97 1016.5
20260905121338 76 71 0.0 0.0 0.00 0.55 0.02 97 1016.5
20260905120838 76 71 0.0 0.0 0.00 0.55 0.02 97 1016.4
20260905120343 75 71 0.0 0.0 0.00 0.55 0.02 96 1016.2
20260905115846 75 71 0.0 0.0 0.00 0.55 0.02 96 1016.2
20260905115331 75 71 0.0 0.0 0.00 0.55 0.02 96 1016.2
20260905114834 75 71 0.0 0.0 0.00 0.55 0.02 96 1016.2
20260905114334 75 71 0.0 0.0 0.00 0.55 0.02 96 1016.2
20260905113833 75 71 0.0 0.0 0.00 0.55 0.02 96 1016.1
20260905113403 75 71 0.0 0.0 0.00 0.55 0.02 96 1016.0
20260905112840 75 71 0.0 0.0 0.00 0.55 0.02 96 1016.0
20260905112340 75 71 0.0 0.0 0.01 0.55 0.02 96 1016.0
20260905111840 75 71 0.0 0.0 0.01 0.55 0.02 96 1015.9
20260905111343 75 71 0.0 0.0 0.01 0.55 0.02 96 1015.9
20260905110843 75 71 0.0 0.0 0.01 0.55 0.02 96 1016.0
20260905110347 75 71 0.0 0.0 0.01 0.55 0.02 96 1015.9
20260905105845 75 71 0.0 0.0 0.01 0.55 0.02 96 1015.8
20260905105347 75 71 0.0 0.0 0.01 0.55 0.02 96 1015.6
20260905104827 75 71 0.0 0.0 0.01 0.55 0.02 96 1015.5
20260905104330 75 71 0.0 0.0 0.01 0.55 0.02 96 1015.5
20260905103902 75 71 0.0 0.0 0.01 0.55 0.02 96 1015.4
20260905103345 75 71 0.0 0.0 0.01 0.55 0.02 96 1015.5
20260905102825 75 71 0.0 0.0 0.01 0.55 0.02 95 1015.5
20260905102327 75 71 0.0 0.0 0.00 0.54 0.01 95 1015.4
20260905101830 75 71 0.0 0.0 0.00 0.54 0.01 95 1015.4
20260905101334 75 71 0.0 0.0 0.00 0.54 0.01 96 1015.5
20260905100834 75 71 0.0 0.0 0.00 0.54 0.01 96 1015.5
20260905100338 75 71 0.0 0.0 0.00 0.54 0.01 96 1015.5
20260905095839 75 71 0.0 0.0 0.00 0.54 0.01 96 1015.4
20260905095343 75 71 0.0 0.0 0.00 0.54 0.01 96 1015.3
20260905094825 75 71 0.0 0.0 0.00 0.54 0.01 96 1015.4
20260905094329 75 71 0.0 0.0 0.00 0.54 0.01 96 1015.5
20260905093833 75 71 0.0 0.0 0.00 0.54 0.01 96 1015.5
20260905093337 75 71 0.0 0.0 0.00 0.54 0.01 96 1015.6
20260905092909 75 71 0.0 0.0 0.00 0.54 0.01 96 1015.5
20260905092329 75 71 0.0 0.0 0.00 0.54 0.01 96 1015.4
20260905091833 76 71 0.0 0.0 0.00 0.54 0.01 96 1015.4
20260905091337 76 71 0.0 0.0 0.00 0.54 0.01 96 1015.5
20260905090837 76 71 0.0 0.0 0.00 0.54 0.01 96 1015.6
20260905090342 76 71 0.0 0.0 0.00 0.54 0.01 96 1015.6
20260905085824 76 71 0.0 0.0 0.00 0.54 0.01 96 1015.6
20260905085326 76 71 0.0 0.0 0.00 0.54 0.01 96 1015.6
20260905084836 76 71 0.0 0.0 0.00 0.54 0.01 96 1015.5
20260905084340 76 71 0.0 0.0 0.01 0.54 0.01 96 1015.5
20260905083824 76 71 0.0 0.0 0.01 0.54 0.01 96 1015.5
20260905083328 76 71 0.0 0.0 0.01 0.54 0.01 96 1015.6
20260905082858 76 71 0.0 0.0 0.01 0.54 0.01 96 1015.5
20260905082340 76 71 0.0 0.0 0.01 0.54 0.01 96 1015.5
20260905081822 76 71 0.0 0.0 0.01 0.54 0.01 96 1015.5
20260905081325 76 71 0.0 0.0 0.01 0.54 0.01 96 1015.5
20260905080829 76 71 0.0 0.0 0.01 0.54 0.01 96 1015.5
20260905080329 76 71 0.0 0.0 0.01 0.54 0.01 96 1015.4
20260905075859 76 71 0.0 0.0 0.01 0.54 0.01 96 1015.4
20260905075342 76 71 0.0 0.0 0.01 0.54 0.01 96 1015.3
20260905074845 76 71 0.0 0.0 0.01 0.54 0.01 95 1015.3
20260905074344 76 71 0.0 0.0 0.00 0.53 0.00 95 1015.4
20260905073843 76 71 0.0 0.0 0.00 0.53 0.00 95 1015.2
20260905073343 76 71 0.0 0.0 0.00 0.53 0.00 95 1015.2
20260905072841 76 71 0.0 0.0 0.00 0.53 0.00 95 1015.3
20260905072340 76 71 0.0 0.0 0.00 0.53 0.00 96 1015.3
20260905071840 76 71 0.0 0.0 0.00 0.53 0.00 95 1015.4
20260905071340 76 71 0.0 0.0 0.00 0.53 0.00 95 1015.4
20260905070840 76 71 0.0 0.0 0.00 0.53 0.00 95 1015.4
20260905070339 77 71 0.0 0.0 0.00 0.53 0.00 95 1015.5
20260905065908 77 71 0.0 0.0 0.00 0.53 0.00 95 1015.5
20260905065349 77 71 0.0 0.0 0.00 0.53 0.00 95 1015.5
20260905064830 77 71 0.0 0.0 0.00 0.53 0.00 95 1015.6
20260905064331 77 71 0.0 1.0 0.00 0.53 0.00 95 1015.7
20260905063839 77 65 0.0 1.0 0.00 0.53 0.00 95 1015.8
20260905063341 77 111 0.0 0.0 0.00 0.53 0.00 95 1015.9
20260905062841 77 111 0.0 0.0 0.00 0.53 0.00 95 1015.9
20260905062325 77 111 0.0 0.0 0.00 0.53 0.00 96 1015.9
20260905061827 77 111 0.0 0.0 0.00 0.53 0.00 95 1016.0
20260905061358 77 111 0.0 0.0 0.00 0.53 0.00 95 1016.0
20260905060835 77 111 0.0 0.0 0.00 0.53 0.00 95 1016.0
20260905060339 77 111 0.0 0.0 0.00 0.53 0.00 95 1016.0
20260905055839 77 111 0.0 0.0 0.00 0.53 0.00 95 1016.1
20260905055343 77 111 0.0 0.0 0.00 0.53 0.00 95 1016.1
20260905054846 77 111 0.0 0.0 0.00 0.53 0.00 95 1016.0
20260905054347 77 111 0.0 0.0 0.00 0.53 0.00 95 1016.2
20260905053837 77 111 0.0 0.0 0.00 0.53 0.00 95 1016.3
20260905053342 77 111 0.0 1.0 0.00 0.53 0.00 95 1016.2
20260905052824 77 111 0.0 1.0 0.00 0.53 0.00 95 1016.3
20260905052334 77 111 0.0 1.0 0.00 0.53 0.00 95 1016.4
20260905051836 77 111 0.0 1.0 0.00 0.53 0.00 95 1016.4
20260905051402 77 111 0.0 0.0 0.00 0.53 0.00 95 1016.5
20260905050842 77 111 0.0 0.0 0.00 0.53 0.00 95 1016.5
20260905050343 77 111 0.0 0.0 0.00 0.53 0.00 95 1016.6
20260905045825 77 111 0.0 0.0 0.00 0.53 0.00 95 1016.6
20260905045355 77 111 0.0 0.0 0.00 0.53 0.00 95 1016.7
20260905044837 77 111 0.0 0.0 0.00 0.53 0.00 95 1016.7
20260905044341 77 111 0.0 0.0 0.00 0.53 0.00 95 1016.7
20260905043824 77 111 0.0 0.0 0.00 0.53 0.00 95 1016.7
20260905043356 77 111 0.0 0.0 0.00 0.53 0.00 95 1016.7
20260905042841 77 111 0.0 0.0 0.00 0.53 0.00 95 1016.8
20260905042342 77 111 0.0 0.0 0.00 0.53 0.00 95 1016.9
20260905041823 77 111 0.0 0.0 0.00 0.53 0.00 95 1016.9
20260905041327 77 111 0.0 0.0 0.00 0.53 0.00 95 1017.0
20260905040832 77 111 0.0 0.0 0.00 0.53 0.00 95 1017.1
20260905040335 77 111 0.0 0.0 0.00 0.53 0.00 95 1017.0
20260905035842 78 111 0.0 0.0 0.00 0.53 0.53 95 1017.0
20260905035324 78 111 0.0 0.0 0.00 0.53 0.53 95 1017.1
20260905034826 78 111 0.0 0.0 0.00 0.53 0.53 95 1017.1
20260905034329 78 111 0.0 0.0 0.00 0.53 0.53 95 1017.0
20260905033832 78 111 0.0 0.0 0.00 0.53 0.53 95 1017.1
20260905033336 78 111 0.0 0.0 0.00 0.53 0.53 95 1017.1
20260905032838 78 111 0.0 0.0 0.00 0.53 0.53 95 1017.1
20260905032342 78 111 0.0 0.0 0.00 0.53 0.53 95 1017.1
20260905031846 78 111 0.0 0.0 0.00 0.53 0.53 95 1017.2
20260905031329 78 111 0.0 0.0 0.00 0.53 0.53 95 1017.2
20260905030856 78 111 0.0 0.0 0.00 0.53 0.53 95 1017.2
20260905030339 78 111 0.0 1.0 0.00 0.53 0.53 95 1017.3
20260905025842 78 111 0.0 2.0 0.00 0.53 0.53 95 1017.2
20260905025326 78 133 1.0 2.0 0.00 0.53 0.53 95 1017.3
20260905024830 78 133 0.0 1.0 0.00 0.53 0.53 95 1017.2
20260905024333 78 133 0.0 1.0 0.00 0.53 0.53 95 1017.2
20260905023838 78 133 0.0 1.0 0.00 0.53 0.53 95 1017.4
20260905023341 78 134 0.0 0.0 0.00 0.53 0.53 95 1017.4
20260905022842 78 134 0.0 0.0 0.00 0.53 0.53 95 1017.4
20260905022323 78 134 0.0 0.0 0.00 0.53 0.53 95 1017.3
20260905021823 78 134 0.0 0.0 0.00 0.53 0.53 95 1017.3
20260905021350 78 134 0.0 1.0 0.00 0.53 0.53 95 1017.2
20260905020846 78 134 0.0 1.0 0.00 0.53 0.53 95 1017.2
20260905020347 78 134 0.0 1.0 0.00 0.53 0.53 95 1017.1
20260905015845 78 134 0.0 2.0 0.00 0.53 0.53 94 1017.0
20260905015348 78 134 0.0 2.0 0.00 0.53 0.53 94 1017.0
20260905014825 78 129 1.0 2.0 0.00 0.53 0.53 94 1017.0
20260905014325 78 95 0.0 1.0 0.00 0.53 0.53 94 1017.1
20260905013824 78 95 0.0 1.0 0.00 0.53 0.53 94 1017.1
20260905013327 78 67 0.0 0.0 0.00 0.53 0.53 94 1017.1
20260905012827 78 67 0.0 0.0 0.00 0.53 0.53 94 1017.1
20260905012328 78 67 0.0 0.0 0.00 0.53 0.53 94 1017.0
20260905011837 77 67 0.0 0.0 0.00 0.53 0.53 94 1017.0
20260905011342 78 67 0.0 0.0 0.00 0.53 0.53 94 1016.8
20260905010839 77 67 0.0 0.0 0.00 0.53 0.53 94 1016.7
20260905010340 77 67 0.0 0.0 0.00 0.53 0.53 94 1016.7
20260905005824 78 67 0.0 0.0 0.00 0.53 0.53 94 1016.6
20260905005329 77 67 0.0 0.0 0.00 0.53 0.53 94 1016.5
20260905004833 78 67 0.0 0.0 0.00 0.53 0.53 94 1016.5
20260905004335 78 67 0.0 0.0 0.00 0.53 0.53 94 1016.4
20260905003907 78 67 0.0 0.0 0.00 0.53 0.53 94 1016.4
20260905003348 77 67 0.0 0.0 0.00 0.53 0.53 93 1016.4
20260905002837 77 67 0.0 0.0 0.00 0.53 0.53 93 1016.3